TimeCST,TemperatureF,Dew PointF,Humidity,Sea Level PressureIn,VisibilityMPH,Wind Direction,Wind SpeedMPH,Gust SpeedMPH,PrecipitationIn,Events,Conditions,WindDirDegrees,DateUTC
12:56 AM,-4.0,-11.0,72,30.26,10.0,East,4.6,-,N/A,,Clear,90,2014-01-07 06:56:00
1:56 AM,-5.1,-11.0,76,30.23,10.0,SE,8.1,-,N/A,,Partly Cloudy,130,2014-01-07 07:56:00
2:56 AM,-2.9,-9.9,72,30.20,10.0,SE,4.6,-,N/A,,Clear,130,2014-01-07 08:56:00
3:56 AM,-0.9,-9.0,69,30.16,10.0,East,5.8,-,N/A,,Clear,100,2014-01-07 09:56:00
4:56 AM,1.0,-7.1,69,30.12,10.0,ESE,3.5,-,N/A,,Overcast,120,2014-01-07 10:56:00
5:56 AM,6.1,-4.0,63,30.10,10.0,SSE,6.9,-,N/A,,Partly Cloudy,160,2014-01-07 11:56:00
6:56 AM,3.9,-4.0,70,30.11,10.0,Calm,Calm,-,N/A,,Scattered Clouds,0,2014-01-07 12:56:00
7:56 AM,3.9,-4.0,70,30.09,10.0,South,4.6,-,N/A,,Scattered Clouds,180,2014-01-07 13:56:00
8:56 AM,7.0,-2.9,64,30.11,10.0,SSE,3.5,-,N/A,,Clear,160,2014-01-07 14:56:00
9:56 AM,12.9,-0.0,56,30.12,10.0,Calm,Calm,-,N/A,,Clear,0,2014-01-07 15:56:00
10:56 AM,18.0,3.9,54,30.12,10.0,North,4.6,-,N/A,,Clear,350,2014-01-07 16:56:00
11:56 AM,23.0,7.0,50,30.10,10.0,NNE,3.5,-,N/A,,Clear,30,2014-01-07 17:56:00
12:56 PM,27.0,10.0,49,30.10,10.0,North,10.4,-,N/A,,Clear,350,2014-01-07 18:56:00
1:56 PM,28.0,10.0,47,30.11,10.0,NNW,11.5,-,N/A,,Clear,340,2014-01-07 19:56:00
2:13 PM,28.0,10.9,49,30.02,10.0,NNW,12.7,-,N/A,,Mostly Cloudy,340,2014-01-07 20:13:00
2:56 PM,27.0,10.0,49,30.13,10.0,NNW,13.8,-,N/A,,Overcast,330,2014-01-07 20:56:00
3:56 PM,26.1,9.0,49,30.16,10.0,NW,12.7,-,N/A,,Overcast,310,2014-01-07 21:56:00
4:43 PM,23.0,8.1,53,30.08,10.0,NNW,6.9,-,N/A,,Scattered Clouds,340,2014-01-07 22:43:00
4:56 PM,21.0,7.0,55,30.19,10.0,NNW,11.5,-,N/A,,Clear,340,2014-01-07 22:56:00
5:56 PM,19.9,7.0,57,30.19,10.0,North,9.2,-,N/A,,Mostly Cloudy,360,2014-01-07 23:56:00
6:56 PM,18.0,6.1,60,30.22,10.0,NNE,11.5,-,N/A,,Overcast,30,2014-01-08 00:56:00
7:56 PM,17.1,5.0,59,30.25,10.0,NE,8.1,-,N/A,,Overcast,50,2014-01-08 01:56:00
8:56 PM,15.1,5.0,64,30.25,10.0,NE,8.1,-,N/A,,Overcast,40,2014-01-08 02:56:00
9:56 PM,15.1,6.1,68,30.27,10.0,ENE,4.6,-,N/A,,Overcast,60,2014-01-08 03:56:00
10:56 PM,15.1,6.1,68,30.29,10.0,Calm,Calm,-,N/A,,Overcast,0,2014-01-08 04:56:00
11:56 PM,15.1,6.1,68,30.29,10.0,North,3.5,-,N/A,,Overcast,350,2014-01-08 05:56:00